Regional Weather Roundup
Issued by NWS Upton, NY

Home | Current Version | Previous Version | Text Only | Print | Product List | Glossary On
Versions: 1 2 3 4 5 6 7 8 9 10 11 12 13 14 15 16 17 18 19 20 21 22 23 24 25 26 27 28 29 30 31 32 33 34 35 36 37 38 39 40 41 42 43 44 45 46 47 48 49 50
000
ASUS41 KOKX 271607
RWROKX

REGIONAL WEATHER ROUNDUP
NATIONAL WEATHER SERVICE NEW YORK NY
1200 PM EDT FRI MAR 27 2015

NOTE: "FAIR" INDICATES FEW OR NO CLOUDS BELOW 12,000 FEET WITH NO
SIGNIFICANT WEATHER AND/OR OBSTRUCTIONS TO VISIBILITY.

NYZ071-072-176-178-NJZ106-104-271700-
NEW YORK CITY METRO AREA


CITY           SKY/WX    TMP DP  RH WIND       PRES   REMARKS
CENTRAL PARK   CLOUDY    42  35  76 CALM      29.77F
LAGUARDIA APRT CLOUDY    43  35  73 N8        29.74F
KENNEDY INTL   CLOUDY    44  36  73 N7        29.75F
NEWARK/LIBERTY CLOUDY    45  36  70 N10       29.76F
BRNX BOT. GARD   N/A     41  36  81 NW6       29.74F
TETERBORO      CLOUDY    45  34  65 NW7       29.74F
$$

NYZ177-179-078>081-271700-
LONG ISLAND NEW YORK

CITY           SKY/WX    TMP DP  RH WIND       PRES   REMARKS
FARMINGDALE    CLOUDY    42  35  76 N7        29.74S
ISLIP          LGT RAIN  41  35  79 NW14      29.71S
SHIRLEY        LGT RAIN  42  36  79 N13       29.72F
WESTHAMPTON    CLOUDY    41  36  82 N8        29.72F
MONTAUK POINT    N/A     41  38  89 N6        29.70F
$$

NYZ052-065-067-271700-
HUDSON VALLEY

CITY           SKY/WX    TMP DP  RH WIND       PRES   REMARKS
WHITE PLAINS   CLOUDY    42  35  76 NW14      29.72F
NEWBURGH       PTSUNNY   41  37  87 VRB5      29.75F
MONTGOMERY     CLOUDY    42  35  76 CALM      29.73F
POUGHKEEPSIE   CLOUDY    43  36  76 W3        29.75F
ALBANY         CLOUDY    43  31  62 NW7       29.76S
$$

NJZ001-105-106-008-010-013-015-019>022-104-271700-
NEW JERSEY

CITY           SKY/WX    TMP DP  RH WIND       PRES   REMARKS
NEWARK/LIBERTY CLOUDY    45  36  70 N10       29.76F
TETERBORO      CLOUDY    45  34  65 NW7       29.74F
CALDWELL       CLOUDY    44  32  62 VRB7      29.76F
MORRISTOWN     CLOUDY    45  34  65 N8        29.76F
SOMERVILLE     CLOUDY    45  32  60 N8        29.74F
SUSSEX         CLOUDY    42  30  62 VRB7      29.75F
ANDOVER          N/A     41  31  67 VRB5      29.75F
TRENTON        CLOUDY    43  35  73 N5        29.75F
MILLVILLE      LGT RAIN  41  37  86 N13       29.77S
ATLANTIC CITY  CLOUDY    42  36  79 NW15      29.76F
WRIGHTSTOWN    LGT RAIN  41  38  87 NW10      29.74F
TOMS RIVER     CLOUDY    41  37  87 NW12      29.75F
BELMAR         CLOUDY    43  34  70 NW14      29.74F
$$

PAZ047>061-062-071-271700-
EASTERN PENNSYLVANIA

CITY           SKY/WX    TMP DP  RH WIND       PRES   REMARKS
PHILADELPHIA   CLOUDY    44  34  67 N10       29.77F
ALLENTOWN      CLOUDY    42  30  62 N10       29.77F
SCRANTON       CLOUDY    39  27  62 N12       29.80R WCI  32
$$

CTZ002-004>006-009-010-012-RIZ004-006-007-MAZ004-011-015-271700-
SOUTHERN NEW ENGLAND
 IN CT

CITY           SKY/WX    TMP DP  RH WIND       PRES   REMARKS
BRADLEY INTL   CLOUDY    42  35  76 N3        29.73S
HARTFORD       CLOUDY    41  36  82 VRB5      29.74S
DANBURY        CLOUDY    42  31  64 N10       29.74S
WTRBRY/OXFORD  PTSUNNY   39  30  70 N9        29.74R WCI  33
BRIDGEPORT     CLOUDY    44  36  73 N9        29.74R
MERIDEN        CLOUDY    42  35  76 N7        29.74R
NEW HAVEN      CLOUDY    42  36  79 N12       29.73S
CHESTER        CLOUDY    39  37  93 N7        29.71F WCI  34
GROTON         CLOUDY    43  39  86 N10       29.70F
WILLIMANTIC    CLOUDY    41  36  82 N6        29.72F

 IN RI

CITY           SKY/WX    TMP DP  RH WIND       PRES   REMARKS
PROVIDENCE     CLOUDY    42  37  82 N8        29.71F
BLOCK ISLAND   CLOUDY    41  37  87 NE10      29.68F
WESTERLY       CLOUDY    43  38  82 N6        29.70F

 IN MA

CITY           SKY/WX    TMP DP  RH WIND       PRES   REMARKS
BOSTON         LGT RAIN  41  38  89 NE5       29.72F
WORCESTER      CLOUDY    38  33  82 N5        29.68F WCI  34
WESTFIELD      CLOUDY    42  35  76 N5        29.73R
PROVINCETOWN   CLOUDY    39  37  93 N6        29.72S WCI  35
NANTUCKET      CLOUDY    41  38  89 N20       29.67F
$$

ANZ330-335-338-340-345-350-353-355-271700-
COASTAL MARINE OBSERVATIONS


STATION/POSITION TIME  SKY/WX   TEMP    WIND        PRES    VSBY  WAVE
                                AIR SEA DIR/SP/G                  HT/PER
                 (UTC)          (F)     (DEG/KT/KT) (MB)    (MI)  (FT/S)
NY HARB ENTRANCE 1550            40 38  330/ 10/ 12 1006.8          4/11
4S FIRE IS       1503               36                N/A           5/11
20S FIRE ISLAND  1450               38              1007.5          5/10
23SW MTP         1550                                 N/A           8/11
HUDSON CANYON    NOT AVBL
EXECUTION ROCKS  NOT AVBL
WESTERN LI SOUND NOT AVBL
CENTRAL LI SOUND NOT AVBL
EASTERN LI SOUND NOT AVBL
ROBBINS REEF     1500            41     330/  9/ 13 1007.1
$$


>>>>>>>>>>>>>>>>>>>>>>>>>>>> KEY <<<<<<<<<<<<<<<<<<<<<<<<<<<
>                                                          <
>     SKY/WX - SKY CONDITION/PRESENT WEATHER               <
>     TMP    - TEMPERATURE IN FAHRENHEIT                   <
>     DP     - DEWPOINT IN FAHRENHEIT                      <
>     RH     - RELATIVE HUMIDITY IN PERCENT                <
>     WIND   - DIRECTION AND SPEED IN MPH                  <
>     PRES   - MEAN SEA LEVEL PRESSURE IN INCHES OF HG     <
>     WCI    - WIND CHILL INDEX                            <
>     VSB    - VISIBILITY IN MILES                         <
>     HX     - HEAT INDEX                                  <
>     TC     - TEMPERATURE IN CELSIUS                      <
>     VRB    - VARIABLE WIND DIRECTION                     <
>                                                          <
>>>>>>>>>>>>>>>>>>>>>>>>>>>> KEY <<<<<<<<<<<<<<<<<<<<<<<<<<<




USA.gov is the U.S. government's official web portal to all federal, state and local government web resources and services.